Погода в Гаочжоу

Китай     21°54′55″N   110°51′04″E
темп.,
°C
ветер,
м/с
пор.,
м/с
влажн.,
%
обл.,
%
осадки,
мм/ч
давл.,
гПа
погр.,
м
12 апреля, пн
пн1223:00+22ююв37855 0.0 1017279
02:00+21вюв268786 0.0 1016238
05:00+21в24885 0.0 1016113
08:00+23вюв367645 0.0 1017402
11:00+28юв555570 0.0 10171399
14:00+31ю454386 0.0 10141991
17:00+30ю654929 0.0 10121595
20:00+25ююв48705 0.0 1013295
13 апреля, вт
вт1323:00+24ююв25825 0.0 1014157
02:00+23ююв12885 0.0 101370
05:00+22юв11915 0.0 101345
08:00+24юв238114 0.0 1015357
11:00+29ююв445830 0.0 10151271
14:00+32ю544645 0.0 10111892
17:00+30ю655111 0.0 10101374
20:00+25ююв47735 0.0 1012311
14 апреля, ср
ср1423:00+24ю25845 0.0 1014236
02:00+23ю1287100 0.0 101260
05:00+22юв118877 0.0 101215
08:00+24юв127986 0.0 1014318
11:00+29ююв445445 0.0 10141241
14:00+32ю554429 0.0 10111858
17:00+30ююв655010 0.0 10101479
20:00+26ююв596854 0.0 1011497
15 апреля, чт
чт1523:00+25ююв497143 0.0 1013408
02:00+24вюв3677100 0.0 1012264
05:00+23вюв2584100 0.0 1012191
08:00+24вюв3677100 0.0 1014479
11:00+27юв5664100 0.4 10141227
14:00+27ююв6664100 2.3 10121250
17:00+27ююв566581 1.3 1011957
20:00+24ююв3677100 1.3 1013226
16 апреля, пт
пт1623:00+24юв1480100 0.0 1014187
02:00+24юв1282100 0.0 1013152
05:00+22юв1288100 0.4 1013116
08:00+23в0186100 0.6 1015128
11:00+25вюв1275100 0.1 1017552
14:00+26ю2269100 0.3 1014775
17:00+27юв2262100 0.3 1013759
20:00+25всв2272100 0.3 101324